sat.trackr.live / text

‹ back to catalog

STARLINK-35475

NORAD 65865 · 2025-223M

PAYLOAD ACTIVE UNKNOWN

§ Identity

Operator
Country
US
Launch date
2025-10-03
Launch site
AFWTR
Launch vehicle
Mass (kg)
RCS (m²)

Purposes: comms

External: N2YO · Heavens-Above · Gunter

§ Orbital elements

Epoch: 2026-09-20T22:38:30.087456Z

Period
93.85 min
Inclination
53.1528°
Eccentricity
0.0002871
Mean motion
15.34402221 rev/d
Perigee alt
460.7 km
Apogee alt
464.7 km
Semi-major
6,840.8 km
B*
4.2040e-4
RAAN
103.4263°
Arg perigee
86.9373°
Mean anomaly
273.1958°
Rev number
5,415

§ Raw data

STARLINK-354751 65865U 25223M   26263.94340379  .00013855  00000+0  42040-3 0  99962 65865  53.1528 103.4263 0002871  86.9373 273.1958 15.34402221 54153

JSON: /api/v1/satellites/65865 · /tle

For live sub-satellite position, see the globe view (requires WebGL).

§ Visibility from observer

Set your observer location to see the next 7 days of passes ≥ 10°. The values pass through the URL so the page stays shareable.

No JS? Fill the form by hand. The geolocation button needs JavaScript.